Weather History for KMNI - February, 2013

Change the Weather History Date:

Sunday, February 17, 2013

  Actual Average (KCKI) Record (KCKI)
Temperature  
Mean Temperature 38 °F -  
Max Temperature 46 °F 63 °F 73 °F (2011)
Min Temperature 30 °F 36 °F 30 °F (2013)
Degree Days  
Heating Degree Days 27    
Moisture  
Dew Point 19 °F    
Average Humidity 54    
Maximum Humidity 93    
Minimum Humidity 25    
Precipitation  
Precipitation 0.00 in - - ()
Sea Level Pressure  
Sea Level Pressure 30.19 in    
Wind  
Wind Speed 5 mph (WNW)    
Max Wind Speed 16 mph    
Max Gust Speed 24 mph    
Visibility 10 miles    
Events      
Averages and records for this station are not official NWS values.
T = Trace of Precipitation, MM = Missing Value Source: NWS Daily Summary

Daily Weather History Graph

Daily Weather History Graph

Search for Another Location

Airport or City:

Trip Planner

Search our weather history database for the weather conditions in past years. The results will help you decide how hot, cold, wet, or windy it might be!

Date:

Astronomy

Feb. 17, 2013 Rise Set
Actual Time 7:02 AM EST 6:07 PM EST
Civil Twilight 6:37 AM EST 6:32 PM EST
Nautical Twilight 6:08 AM EST 7:01 PM EST
Astronomical Twilight 5:39 AM EST 7:30 PM EST
Moon 11:17 AM EST (2/17) 12:39 AM EST (2/17)
Length of Visible Light 11h 55m
Length of Day
11h 04m
Waxing Crescent, 49% of the Moon is Illuminated
Feb 17
Waxing Crescent
Feb 17
First Quarter
Feb 25
Full
Mar 4
Last Quarter
Mar 11
New

Hourly Weather History & Observations

Time (EST) Temp. Windchill Dew Point Humidity Pressure Visibility Wind Dir Wind Speed Gust Speed Precip Events Conditions
12:15 AM 33.8 °F - 32.0 °F 93% 30.04 in 10.0 mi Calm Calm - N/A   Clear
12:35 AM 33.8 °F 30.8 °F 24.8 °F 70% 30.04 in 10.0 mi WNW 3.5 mph - N/A   Clear
12:55 AM 33.8 °F 29.6 °F 26.6 °F 75% 30.05 in 10.0 mi WNW 4.6 mph - N/A   Clear
1:15 AM 33.8 °F 28.6 °F 24.8 °F 70% 30.05 in 10.0 mi WNW 5.8 mph - N/A   Clear
1:35 AM 33.8 °F 30.8 °F 23.0 °F 65% 30.06 in 10.0 mi West 3.5 mph - N/A   Clear
1:55 AM 33.8 °F 29.6 °F 21.2 °F 60% 30.07 in 10.0 mi WNW 4.6 mph - N/A   Clear
2:15 AM 33.8 °F 28.6 °F 21.2 °F 60% 30.07 in 10.0 mi West 5.8 mph - N/A   Clear
2:35 AM 33.8 °F 28.6 °F 19.4 °F 56% 30.07 in 10.0 mi West 5.8 mph - N/A   Clear
2:55 AM 33.8 °F 29.6 °F 19.4 °F 56% 30.07 in 10.0 mi WNW 4.6 mph - N/A   Clear
3:15 AM 33.8 °F 28.6 °F 14.0 °F 44% 30.08 in 10.0 mi WNW 5.8 mph - N/A   Clear
3:35 AM 33.8 °F 29.6 °F 19.4 °F 56% 30.08 in 10.0 mi WNW 4.6 mph - N/A   Clear
3:55 AM 33.8 °F 29.6 °F 19.4 °F 56% 30.09 in 10.0 mi WNW 4.6 mph - N/A   Clear
4:15 AM 32.0 °F 27.5 °F 19.4 °F 60% 30.09 in 10.0 mi WNW 4.6 mph - N/A   Clear
4:35 AM 32.0 °F 27.5 °F 17.6 °F 55% 30.10 in 10.0 mi WNW 4.6 mph - N/A   Clear
4:55 AM 32.0 °F - 19.4 °F 60% 30.10 in 10.0 mi Calm Calm - N/A   Clear
5:15 AM 32.0 °F - 24.8 °F 75% 30.11 in 10.0 mi Calm Calm - N/A   Clear
5:35 AM 32.0 °F - 23.0 °F 69% 30.12 in 10.0 mi Calm Calm - N/A   Clear
5:55 AM 32.0 °F - 17.6 °F 55% 30.13 in 10.0 mi Calm Calm - N/A   Clear
6:15 AM 32.0 °F 28.7 °F 17.6 °F 55% 30.13 in 10.0 mi WNW 3.5 mph - N/A   Clear
6:55 AM 32.0 °F 27.5 °F 23.0 °F 69% 30.15 in 10.0 mi West 4.6 mph - N/A   Clear
7:15 AM 32.0 °F - 23.0 °F 69% 30.16 in 10.0 mi Calm Calm - N/A   Clear
7:35 AM 32.0 °F - 23.0 °F 69% 30.17 in 10.0 mi Calm Calm - N/A   Clear
7:55 AM 32.0 °F 28.7 °F 23.0 °F 69% 30.18 in 10.0 mi WNW 3.5 mph - N/A   Clear
8:15 AM 32.0 °F 28.7 °F 23.0 °F 69% 30.20 in 10.0 mi West 3.5 mph - N/A   Clear
8:35 AM 33.8 °F 28.6 °F 23.0 °F 65% 30.21 in 10.0 mi NW 5.8 mph - N/A   Clear
8:55 AM 33.8 °F 28.6 °F 21.2 °F 60% 30.22 in 10.0 mi WNW 5.8 mph - N/A   Clear
9:15 AM 35.6 °F 29.9 °F 19.4 °F 52% 30.23 in 10.0 mi WNW 6.9 mph 16.1 mph N/A   Clear
9:35 AM 35.6 °F 28.6 °F 19.4 °F 52% 30.23 in 10.0 mi West 9.2 mph - N/A   Clear
9:55 AM 37.4 °F 30.3 °F 17.6 °F 45% 30.23 in 10.0 mi WNW 10.4 mph 17.3 mph N/A   Clear
10:15 AM 37.4 °F 32.1 °F 17.6 °F 45% 30.23 in 10.0 mi WNW 6.9 mph - N/A   Clear
10:35 AM 39.2 °F 32.0 °F 12.2 °F 33% 30.23 in 10.0 mi NW 11.5 mph 20.7 mph N/A   Clear
10:55 AM 39.2 °F 30.8 °F 12.2 °F 33% 30.24 in 10.0 mi WNW 15.0 mph 21.9 mph N/A   Clear
11:15 AM 41.0 °F 32.8 °F 14.0 °F 33% 30.23 in 10.0 mi NW 16.1 mph 21.9 mph N/A   Clear
11:35 AM 41.0 °F 33.9 °F 12.2 °F 31% 30.23 in 10.0 mi WNW 12.7 mph 19.6 mph N/A   Clear
11:55 AM 41.0 °F 34.3 °F 14.0 °F 33% 30.22 in 10.0 mi NW 11.5 mph 23.0 mph N/A   Clear
12:15 PM 42.8 °F 37.0 °F 14.0 °F 31% 30.22 in 10.0 mi NW 10.4 mph 24.2 mph N/A   Clear
12:35 PM 42.8 °F 37.0 °F 14.0 °F 31% 30.22 in 10.0 mi WNW 10.4 mph 20.7 mph N/A   Clear
12:55 PM 44.6 °F 38.1 °F 14.0 °F 29% 30.21 in 10.0 mi NNW 13.8 mph 23.0 mph N/A   Clear
1:15 PM 44.6 °F 38.8 °F 12.2 °F 27% 30.21 in 10.0 mi WNW 11.5 mph 21.9 mph N/A   Clear
1:55 PM 44.6 °F 38.1 °F 12.2 °F 27% 30.20 in 10.0 mi NW 13.8 mph 18.4 mph N/A   Clear
2:15 PM 44.6 °F 38.8 °F 12.2 °F 27% 30.20 in 10.0 mi WNW 11.5 mph 20.7 mph N/A   Clear
2:35 PM 44.6 °F 38.1 °F 12.2 °F 27% 30.20 in 10.0 mi West 13.8 mph 20.7 mph N/A   Clear
2:55 PM 46.4 °F 40.7 °F 12.2 °F 25% 30.20 in 10.0 mi WNW 12.7 mph 19.6 mph N/A   Clear
3:15 PM 46.4 °F 42.4 °F 12.2 °F 25% 30.19 in 10.0 mi WNW 8.1 mph 21.9 mph N/A   Clear
3:35 PM 46.4 °F 41.1 °F 12.2 °F 25% 30.19 in 10.0 mi WNW 11.5 mph 18.4 mph N/A   Clear
3:55 PM 46.4 °F 41.5 °F 12.2 °F 25% 30.19 in 10.0 mi WNW 10.4 mph 16.1 mph N/A   Clear
4:15 PM 46.4 °F 42.4 °F 14.0 °F 27% 30.20 in 10.0 mi West 8.1 mph - N/A   Clear
4:35 PM 46.4 °F 41.9 °F 14.0 °F 27% 30.20 in 10.0 mi WNW 9.2 mph 17.3 mph N/A   Clear
4:55 PM 46.4 °F 42.9 °F 12.2 °F 25% 30.20 in 10.0 mi WNW 6.9 mph 18.4 mph N/A   Clear
5:15 PM 46.4 °F 42.4 °F 14.0 °F 27% 30.21 in 10.0 mi West 8.1 mph - N/A   Clear
5:35 PM 46.4 °F 44.3 °F 14.0 °F 27% 30.21 in 10.0 mi West 4.6 mph - N/A   Clear
5:55 PM 44.6 °F 42.2 °F 14.0 °F 29% 30.21 in 10.0 mi WNW 4.6 mph - N/A   Clear
6:15 PM 44.6 °F 43.1 °F 15.8 °F 31% 30.22 in 10.0 mi West 3.5 mph - N/A   Clear
6:35 PM 37.4 °F - 24.8 °F 60% 30.23 in 10.0 mi Calm Calm - N/A   Clear
6:55 PM 35.6 °F - 23.0 °F 60% 30.23 in 10.0 mi Calm Calm - N/A   Clear
7:15 PM 33.8 °F - 23.0 °F 65% 30.24 in 10.0 mi Calm Calm - N/A   Clear
7:35 PM 32.0 °F - 23.0 °F 69% 30.25 in 10.0 mi Calm Calm - N/A   Clear
7:55 PM 32.0 °F - 23.0 °F 69% 30.26 in 10.0 mi Calm Calm - N/A   Clear
8:15 PM 32.0 °F - 23.0 °F 69% 30.26 in 10.0 mi Calm Calm - N/A   Clear
8:35 PM 32.0 °F - 24.8 °F 75% 30.26 in 10.0 mi Calm Calm - N/A   Clear
8:55 PM 32.0 °F - 24.8 °F 75% 30.27 in 10.0 mi Calm Calm - N/A   Clear
9:15 PM 32.0 °F - 26.6 °F 80% 30.28 in 10.0 mi Calm Calm - N/A   Clear
9:35 PM 32.0 °F - 24.8 °F 75% 30.28 in 10.0 mi Calm Calm - N/A   Clear
9:55 PM 30.2 °F - 24.8 °F 80% 30.29 in 10.0 mi Calm Calm - N/A   Clear
10:15 PM 30.2 °F - 24.8 °F 80% 30.29 in 10.0 mi Calm Calm - N/A   Clear
10:35 PM 32.0 °F - 26.6 °F 80% 30.29 in 10.0 mi Calm Calm - N/A   Clear
10:55 PM 30.2 °F - 26.6 °F 86% 30.30 in 10.0 mi Calm Calm - N/A   Clear
11:15 PM 30.2 °F - 24.8 °F 80% 30.30 in 10.0 mi Calm Calm - N/A   Clear
11:35 PM 30.2 °F - 26.6 °F 86% 30.31 in 10.0 mi Calm Calm - N/A   Clear
11:55 PM 30.2 °F - 24.8 °F 80% 30.31 in 10.0 mi Calm Calm - N/A   Clear